Location: Coupvray
(48.8929°N, 2.7967°E)
Time: 22:05:13
(UTC+00:00)

Cosmos 1241 Rocket - Pass Details

Date: 31 October 2020
Orbit: 929 x 1018 km, 65.8° (Epoch: 27 November)

Event Time Altitude Azimuth Distance (km) Brightness Sun altitude
Rises 16:52:28 0° 236° (SW) 3,639 9.3 -4.4°
Reaches altitude 10° 16:55:04 10° 241° (WSW) 2,709 8.5 -4.8°
Maximum altitude 17:01:14 50° 317° (NW) 1,234 5.3 -5.8°
Drops below altitude 10° 17:07:34 10° 32° (NNE) 2,781 6.5 -6.8°
Enters shadow 17:10:17 - 38° (NE) 3,743 7.1 -7.3°
